Home > Weather > Coffs Harbour > Past weeks

Flag for Australia Weather for the Past 2 Weeks in Coffs Harbour, New South Wales, Australia

Now
67 °F

Mild.


Feels Like: 67 °F
Forecast: 68 / 81 °F
Wind: 8 mph from Southeast

Location: Tamworth Airport AWS

Current Time: Feb 12, 2016 at 9:25:57 AM

Latest Report: Feb 12, 2016 at 8:00 AM


Visibility: N/A

Pressure: 29.95 "Hg

Humidity: 64%

Dew point: 55 °F

Location of Coffs HarbourLocation

Historic Weather in Coffs Harbour — Graph

°F

Coffs Harbour Temperature Yesterday

Maximum temperature yesterday: 94 °F (at 3:00 PM)
Minimum temperature yesterday: 60 °F (at 6:00 AM)
Average temperature yesterday: 77 °F

High & Low Weather Summary for the Past Weeks

 TemperatureHumidityPressure
High94 °F (Feb 11, 3:00 PM)90% (Jan 28, 7:00 AM)30.06 "Hg (Jan 28, 7:00 AM)
Low53 °F (Feb 1, 6:00 AM)14% (Feb 11, 6:00 PM)29.50 "Hg (Jan 29, 5:00 PM)
Average73 °F57%29.77 "Hg
* Reported Jan 28 7:00 AM — Feb 12 7:00 AM, Coffs Harbour, Weather by CustomWeather, © 2016

Note: Actual official high and low records may vary slightly from our data, if they occured in-between our weather recording intervals... More about our weather records

Advertising

Coffs Harbour Weather History for the Previous 24 Hours

 ConditionsComfort  
Time TempWeatherWind HumidityBarometerVisibility
7:00 AM
Fri, Feb 12
65 °FMild.9 mph72%29.93 "HgN/A
6:00 AM63 °FMild.7 mph72%29.92 "HgN/A
5:00 AM64 °FMild.8 mph70%29.90 "HgN/A
4:00 AM65 °FMild.7 mph70%29.90 "HgN/A
3:00 AM68 °FPassing clouds.5 mph66%29.90 "HgN/A
2:00 AM71 °FMild.7 mph59%29.90 "HgN/A
1:00 AM73 °FMild.14 mph57%29.92 "HgN/A
12:00 AM73 °FPassing clouds.10 mph57%29.93 "HgN/A
11:00 PM
Thu, Feb 11
74 °FMild.10 mph51%29.92 "HgN/A
10:00 PM77 °FWarm.13 mph42%29.90 "HgN/A
9:00 PM80 °FPleasantly warm.17 mph36%29.86 "HgN/A
8:00 PM83 °FPleasantly warm.14 mph25%29.83 "HgN/A
7:00 PM88 °FPleasantly warm.15 mph19%29.79 "HgN/A
6:00 PM92 °FHot.14 mph14%29.78 "HgN/A
5:00 PM93 °FHot.15 mph15%29.79 "HgN/A
3:00 PM94 °FExtremely hot.12 mph16%29.81 "HgN/A
2:00 PM90 °FHot.9 mph19%29.84 "HgN/A
1:00 PM90 °FHot.8 mph21%29.86 "HgN/A
12:00 PM85 °FPleasantly warm.6 mph30%29.89 "HgN/A
11:00 AM82 °FPleasantly warm.5 mph35%29.90 "HgN/A
10:00 AM79 °FWarm.5 mph42%29.92 "HgN/A
Weather by CustomWeather, © 2016

See weather overviewHow to use our weather pages